This is the latest recevied weather packets stored in our database for station/object SP7QPD-1. If no packets are shown the sender has not sent any weather packets the latest 10 day(s).
| Time | Temp. | Humidity | Pressure | Rain* | Wind** | Luminosity | Snow |
|---|---|---|---|---|---|---|---|
| 1777657949 | 16.11° C | 45% | 1023.1 hPa | 0 mm | - | - | - |
| 1777657349 | 16.67° C | 44% | 1023 hPa | 0 mm | - | - | - |
| 1777656749 | 17.22° C | 43% | 1023 hPa | 0 mm | - | - | - |
| 1777656149 | 17.22° C | 42% | 1022.9 hPa | 0 mm | - | - | - |
| 1777655549 | 17.78° C | 41% | 1023 hPa | 0 mm | - | - | - |
| 1777654949 | 18.33° C | 41% | 1023 hPa | 0 mm | - | - | - |
| 1777654349 | 18.89° C | 40% | 1022.9 hPa | 0 mm | - | - | - |
| 1777653749 | 18.89° C | 40% | 1023 hPa | 0 mm | - | - | - |
| 1777653149 | 19.44° C | 38% | 1022.8 hPa | 0 mm | - | - | - |
| 1777652549 | 19.44° C | 39% | 1022.8 hPa | 0 mm | - | - | - |
| 1777651948 | 20° C | 37% | 1022.9 hPa | 0 mm | - | - | - |
| 1777651348 | 20° C | 37% | 1023 hPa | 0 mm | - | - | - |
| 1777650748 | 20° C | 37% | 1022.9 hPa | 0 mm | - | - | - |
| 1777650148 | 20.56° C | 36% | 1023.1 hPa | 0 mm | - | - | - |
| 1777649548 | 20.56° C | 36% | 1023.2 hPa | 0 mm | - | - | - |
| 1777648948 | 20.56° C | 36% | 1023.2 hPa | 0 mm | - | - | - |
| 1777648348 | 21.11° C | 37% | 1023.3 hPa | 0 mm | - | - | - |
| 1777647748 | 21.11° C | 37% | 1023.1 hPa | 0 mm | - | - | - |
| 1777647148 | 21.67° C | 38% | 1023.2 hPa | 0 mm | - | - | - |
| 1777646548 | 21.11° C | 37% | 1023.2 hPa | 0 mm | - | - | - |
| 1777645948 | 21.11° C | 39% | 1023.4 hPa | 0 mm | - | - | - |
| 1777645348 | 21.11° C | 38% | 1023.4 hPa | 0 mm | - | - | - |
| 1777644748 | 21.67° C | 38% | 1023.5 hPa | 0 mm | - | - | - |
| 1777644147 | 21.11° C | 39% | 1023.5 hPa | 0 mm | - | - | - |
| 1777643547 | 21.11° C | 40% | 1023.3 hPa | 0 mm | - | - | - |
* Rain latest hour (hover to see other rain measurements)
** Current wind speed in m/s (hover to see current wind gust speed)